| time (UTC) | temp F | wind direction | speed knots | gust knots | rain 1hr in | rain 24hr in | rain mn in | humidity % | barometer mb |
| 20260831091554 | 68 | 0 | 0.0 | 0.0 | 0.00 | 0.00 | 0.00 | 78 | 1012.3 |
| 20260831090047 | 68 | 0 | 0.0 | 0.0 | 0.00 | 0.00 | 0.00 | 78 | 1012.3 |
| 20260831084602 | 69 | 0 | 0.0 | 0.0 | 0.00 | 0.00 | 0.00 | 77 | 1012.2 |
| 20260831083059 | 69 | 0 | 0.0 | 0.0 | 0.00 | 0.00 | 0.00 | 77 | 1012.3 |
| 20260831081557 | 69 | 0 | 0.0 | 0.9 | 0.00 | 0.00 | 0.00 | 77 | 1012.3 |
| 20260831080049 | 69 | 0 | 0.0 | 0.0 | 0.00 | 0.00 | 0.00 | 76 | 1012.3 |
| 20260831074559 | 70 | 0 | 0.0 | 0.0 | 0.00 | 0.00 | 0.00 | 76 | 1012.3 |
| 20260831073055 | 70 | 0 | 0.0 | 0.0 | 0.00 | 0.00 | 0.00 | 75 | 1012.3 |
| 20260831071552 | 70 | 0 | 0.0 | 0.0 | 0.00 | 0.00 | 0.00 | 75 | 1012.2 |
| 20260831070108 | 70 | 0 | 0.0 | 0.0 | 0.00 | 0.00 | 0.00 | 74 | 1012.1 |
| 20260831064553 | 71 | 0 | 0.0 | 0.0 | 0.00 | 0.00 | 0.00 | 74 | 1012.1 |
| 20260831063050 | 71 | 0 | 0.0 | 0.9 | 0.00 | 0.00 | 0.00 | 74 | 1012.1 |
| 20260831061546 | 72 | 291 | 0.0 | 0.9 | 0.00 | 0.00 | 0.00 | 73 | 1012.2 |
| 20260831060109 | 72 | 0 | 0.0 | 1.7 | 0.00 | 0.00 | 0.00 | 73 | 1012.1 |
| 20260831054554 | 72 | 0 | 0.0 | 0.9 | 0.00 | 0.00 | 0.00 | 71 | 1012.2 |
| 20260831053051 | 73 | 0 | 0.0 | 0.9 | 0.00 | 0.00 | 0.00 | 71 | 1012.3 |
| 20260831051603 | 73 | 0 | 0.0 | 0.9 | 0.00 | 0.00 | 0.00 | 70 | 1012.2 |
| 20260831050049 | 73 | 291 | 0.0 | 2.6 | 0.00 | 0.00 | 0.00 | 69 | 1012.2 |
| 20260831044554 | 73 | 0 | 0.0 | 0.9 | 0.00 | 0.00 | 0.00 | 68 | 1012.3 |
| 20260831043048 | 74 | 321 | 0.0 | 2.6 | 0.00 | 0.00 | 0.00 | 68 | 1012.0 |
| 20260831041544 | 74 | 0 | 0.0 | 2.6 | 0.00 | 0.00 | 0.00 | 67 | 1011.8 |
| 20260831040058 | 74 | 0 | 0.0 | 2.6 | 0.00 | 0.00 | 0.00 | 67 | 1011.7 |
| 20260831034549 | 74 | 240 | 0.9 | 2.6 | 0.00 | 0.00 | 0.00 | 67 | 1011.6 |
| 20260831033050 | 74 | 303 | 0.9 | 3.5 | 0.00 | 0.00 | 0.00 | 67 | 1011.3 |
| 20260831031558 | 74 | 0 | 0.9 | 6.1 | 0.00 | 0.00 | 0.00 | 67 | 1010.8 |
| 20260831030051 | 75 | 289 | 0.9 | 6.1 | 0.00 | 0.00 | 0.00 | 68 | 1010.8 |
| 20260831024611 | 75 | 0 | 0.9 | 5.2 | 0.00 | 0.00 | 0.00 | 69 | 1010.7 |
| 20260831023050 | 76 | 298 | 1.7 | 7.8 | 0.00 | 0.00 | 0.00 | 70 | 1010.7 |
| 20260831021559 | 77 | 303 | 0.9 | 3.5 | 0.00 | 0.00 | 0.00 | 70 | 1010.6 |
| 20260831020050 | 78 | 0 | 0.9 | 6.1 | 0.00 | 0.00 | 0.00 | 68 | 1010.5 |
| 20260831014557 | 80 | 269 | 0.9 | 4.3 | 0.00 | 0.00 | 0.00 | 67 | 1010.6 |
| 20260831013056 | 80 | 268 | 0.9 | 5.2 | 0.00 | 0.00 | 0.00 | 66 | 1010.5 |
| 20260831011551 | 82 | 0 | 0.9 | 4.3 | 0.00 | 0.00 | 0.00 | 65 | 1010.4 |
| 20260831010121 | 82 | 277 | 1.7 | 5.2 | 0.00 | 0.00 | 0.00 | 65 | 1010.3 |
| 20260831004558 | 82 | 177 | 2.6 | 7.0 | 0.00 | 0.00 | 0.00 | 65 | 1010.3 |
| 20260831003055 | 83 | 144 | 4.3 | 9.6 | 0.00 | 0.00 | 0.00 | 64 | 1010.5 |
| 20260831001558 | 84 | 167 | 4.3 | 10.4 | 0.00 | 0.00 | 0.00 | 62 | 1010.4 |
| 20260831000054 | 84 | 177 | 4.3 | 9.6 | 0.00 | 0.00 | 0.00 | 60 | 1010.4 |
| 20260830234549 | 84 | 184 | 4.3 | 9.6 | 0.00 | 0.00 | 0.00 | 61 | 1010.4 |
| 20260830233045 | 84 | 165 | 3.5 | 9.6 | 0.00 | 0.00 | 0.00 | 61 | 1010.3 |
| 20260830231558 | 84 | 226 | 2.6 | 9.6 | 0.00 | 0.00 | 0.00 | 61 | 1010.5 |
| 20260830230055 | 84 | 183 | 3.5 | 8.7 | 0.00 | 0.00 | 0.00 | 60 | 1010.6 |
| 20260830224555 | 85 | 217 | 2.6 | 9.6 | 0.00 | 0.00 | 0.00 | 60 | 1010.7 |
| 20260830223045 | 85 | 155 | 4.3 | 8.7 | 0.00 | 0.00 | 0.00 | 59 | 1010.9 |
| 20260830221555 | 85 | 176 | 3.5 | 7.8 | 0.00 | 0.00 | 0.00 | 60 | 1011.1 |
| 20260830220101 | 85 | 224 | 2.6 | 9.6 | 0.00 | 0.00 | 0.00 | 56 | 1011.1 |
| 20260830214602 | 85 | 190 | 4.3 | 9.6 | 0.00 | 0.00 | 0.00 | 58 | 1011.4 |
| 20260830213049 | 85 | 169 | 3.5 | 10.4 | 0.00 | 0.00 | 0.00 | 57 | 1011.6 |
| 20260830211549 | 86 | 158 | 4.3 | 8.7 | 0.00 | 0.00 | 0.00 | 58 | 1011.9 |
| 20260830204545 | 85 | 184 | 1.7 | 9.6 | 0.00 | 0.00 | 0.00 | 59 | 1012.2 |
| 20260830203105 | 86 | 166 | 2.6 | 9.6 | 0.00 | 0.00 | 0.00 | 60 | 1012.2 |
| 20260830201551 | 86 | 166 | 2.6 | 8.7 | 0.00 | 0.00 | 0.00 | 62 | 1012.1 |
| 20260830200103 | 85 | 248 | 1.7 | 9.6 | 0.00 | 0.00 | 0.00 | 62 | 1012.0 |
| 20260830194557 | 85 | 198 | 0.9 | 7.8 | 0.00 | 0.00 | 0.00 | 65 | 1012.2 |
| 20260830193049 | 85 | 236 | 2.6 | 8.7 | 0.00 | 0.00 | 0.00 | 64 | 1012.3 |
| 20260830191546 | 85 | 209 | 2.6 | 6.1 | 0.00 | 0.00 | 0.00 | 65 | 1012.4 |
| 20260830190046 | 84 | 322 | 3.5 | 8.7 | 0.00 | 0.00 | 0.00 | 66 | 1012.4 |
| 20260830184553 | 84 | 178 | 1.7 | 8.7 | 0.00 | 0.00 | 0.00 | 66 | 1012.5 |
| 20260830183105 | 84 | 152 | 3.5 | 7.8 | 0.00 | 0.00 | 0.00 | 67 | 1012.4 |
| 20260830181552 | 84 | 165 | 2.6 | 7.8 | 0.00 | 0.00 | 0.00 | 67 | 1012.4 |
| 20260830180104 | 83 | 160 | 1.7 | 6.1 | 0.00 | 0.00 | 0.00 | 67 | 1012.4 |
| 20260830174554 | 83 | 144 | 2.6 | 7.8 | 0.00 | 0.00 | 0.00 | 67 | 1012.3 |
| 20260830173113 | 83 | 177 | 2.6 | 6.1 | 0.00 | 0.00 | 0.00 | 66 | 1012.4 |
| 20260830171556 | 82 | 206 | 1.7 | 4.3 | 0.00 | 0.00 | 0.00 | 66 | 1012.4 |
| 20260830170052 | 81 | 241 | 0.0 | 4.3 | 0.00 | 0.00 | 0.00 | 66 | 1012.3 |
| 20260830164547 | 80 | 262 | 1.7 | 5.2 | 0.00 | 0.00 | 0.00 | 70 | 1012.4 |
| 20260830163100 | 79 | 151 | 0.0 | 4.3 | 0.00 | 0.00 | 0.00 | 73 | 1012.3 |
| 20260830161603 | 78 | 179 | 0.9 | 4.3 | 0.00 | 0.00 | 0.00 | 76 | 1012.3 |
| 20260830160048 | 77 | 183 | 2.6 | 5.2 | 0.00 | 0.00 | 0.00 | 78 | 1012.3 |
| 20260830154544 | 75 | 143 | 0.9 | 4.3 | 0.00 | 0.00 | 0.00 | 80 | 1012.3 |
| 20260830153055 | 74 | 219 | 0.9 | 3.5 | 0.00 | 0.00 | 0.00 | 83 | 1012.4 |
| 20260830151602 | 73 | 154 | 0.0 | 3.5 | 0.00 | 0.00 | 0.00 | 85 | 1012.4 |
| 20260830150050 | 72 | 0 | 0.0 | 2.6 | 0.00 | 0.00 | 0.00 | 85 | 1012.4 |
| 20260830144546 | 71 | 0 | 0.0 | 2.6 | 0.00 | 0.00 | 0.00 | 85 | 1012.3 |
| 20260830143053 | 70 | 0 | 0.0 | 0.0 | 0.00 | 0.00 | 0.00 | 86 | 1012.2 |
| 20260830141548 | 69 | 0 | 0.0 | 0.0 | 0.00 | 0.00 | 0.00 | 85 | 1012.2 |
| 20260830140056 | 69 | 0 | 0.0 | 0.0 | 0.00 | 0.00 | 0.00 | 85 | 1012.0 |
| 20260830134550 | 69 | 0 | 0.0 | 0.9 | 0.00 | 0.00 | 0.00 | 85 | 1011.9 |
| 20260830133050 | 69 | 0 | 0.0 | 0.9 | 0.00 | 0.00 | 0.00 | 84 | 1011.8 |
| 20260830131610 | 69 | 0 | 0.0 | 0.0 | 0.00 | 0.00 | 0.00 | 84 | 1011.5 |
| 20260830130052 | 69 | 0 | 0.0 | 0.0 | 0.00 | 0.00 | 0.00 | 84 | 1011.5 |
| 20260830124553 | 70 | 0 | 0.0 | 0.0 | 0.00 | 0.00 | 0.00 | 84 | 1011.4 |
| 20260830123054 | 70 | 0 | 0.0 | 0.0 | 0.00 | 0.00 | 0.00 | 83 | 1011.3 |
| 20260830121559 | 70 | 0 | 0.0 | 0.0 | 0.00 | 0.00 | 0.00 | 83 | 1011.2 |
| 20260830114551 | 70 | 0 | 0.0 | 0.0 | 0.00 | 0.00 | 0.00 | 83 | 1011.1 |
| 20260830113050 | 71 | 0 | 0.0 | 0.0 | 0.00 | 0.00 | 0.00 | 83 | 1011.1 |
| 20260830111548 | 71 | 0 | 0.0 | 0.9 | 0.00 | 0.00 | 0.00 | 82 | 1011.2 |
| 20260830110129 | 71 | 0 | 0.0 | 0.0 | 0.00 | 0.00 | 0.00 | 82 | 1011.2 |
| 20260830104550 | 71 | 0 | 0.0 | 0.9 | 0.00 | 0.00 | 0.00 | 82 | 1011.2 |
| 20260830103049 | 72 | 0 | 0.0 | 0.9 | 0.00 | 0.00 | 0.00 | 82 | 1011.2 |
| 20260830101544 | 72 | 0 | 0.0 | 0.9 | 0.00 | 0.00 | 0.00 | 82 | 1011.2 |
| 20260830100055 | 72 | 0 | 0.0 | 0.0 | 0.00 | 0.00 | 0.00 | 82 | 1011.3 |
| 20260830094550 | 72 | 0 | 0.0 | 0.9 | 0.00 | 0.00 | 0.00 | 81 | 1011.0 |
| 20260830093104 | 72 | 0 | 0.0 | 1.7 | 0.00 | 0.00 | 0.00 | 81 | 1010.9 |